Regional Weather Roundup
Issued by NWS

Home | Current Version | Previous Version | Text Only | Print | Product List | Glossary On
Versions: 1 2 3 4 5 6 7 8 9 10 11 12 13 14 15 16 17 18 19 20 21 22 23 24 25 26 27 28 29 30 31 32 33 34 35 36 37 38 39 40 41 42 43 44 45 46 47 48 49 50
000
ASCA44 KEWX 261720
RWRMX

LATIN AMERICA AND CARIBBEAN REGIONAL WEATHER ROUNDUP
NATIONAL WEATHER SERVICE AUSTIN/SAN ANTONIO TX
1200 PM CDT FRI MAY 26 2017

NOTE: "FAIR" INDICATED FEW OR NO CLOUDS BELOW 12,000 FEET WITH NO
SIGNIFICANT WEATHER AND/OR OBSTRUCTIONS TO VISIBILITY.

BAJA CALIFORNIA

CITY           SKY/WX    TMP DP  RH WIND       PRES   REMARKS
LORETO         SUNNY     82  66  57 CALM      29.88R
LA PAZ         SUNNY     84  45  24 CALM      29.92F
MEXICALI       SUNNY     75  39  27 W3        29.83R
S.J. DEL CABO  SUNNY     84  63  48 E12       29.91S
TIJUANA        CLOUDY    64  43  45 CALM      30.02R

NORTHWESTERN MEXICO

CITY           SKY/WX    TMP DP  RH WIND       PRES   REMARKS
CULIACAN       SUNNY     86  68  54 CALM      29.92S
DURANGO        SUNNY     77  36  22 S5        30.26F
GUAYMAS        SUNNY     84  72  65 CALM      29.87R
HERMOSILLO     SUNNY     90  54  29 S9        29.92F
CD. JUAREZ     PTSUNNY   84  37  18 SW8       29.97S
LOS MOCHIS     MOSUNNY   82  63  51 S12       29.94R
OBREGON        MOSUNNY   88  57  35 SE9       29.89S

NORTHEASTERN MEXICO

CITY           SKY/WX    TMP DP  RH WIND       PRES   REMARKS
CHIHUAHUA      PTSUNNY   84  41  21 SW5       30.11F
MATAMOROS      PTSUNNY   90  77  66 S20       29.82F HX 102
MONCLOVA         N/A    N/A N/A N/A MISG        N/A
MONTERREY      SUNNY     86  68  54 SE6       29.82S
NUEVO LAREDO   CLOUDY    82  73  74 S10       29.83S
PIEDRAS NEGRAS CLOUDY    81  73  78 SE7       29.89R
REYNOSA        PTSUNNY   86  70  58 SE17G29   29.80S HX  90
SALTILLO       SUNNY    100  48  17 CALM      30.11F HX  97
TORREON        SUNNY     95  43  16 NW16      30.04S HX  91
CD. VICTORIA   SUNNY     90  73  58 S14G30    29.82S HX  98

WESTERN MEXICO

CITY           SKY/WX    TMP DP  RH WIND       PRES   REMARKS
AGUASCALIENTES SUNNY     81  41  24 W5        30.27S
COLIMA           N/A    N/A N/A N/A MISG        N/A
DEL BAJIO      MOSUNNY   82  48  30 NW13      30.28F
GUADALAJARA    SUNNY     82  43  24 S6        30.19F
MANZANILLO     SUNNY     84  72  65 SW9       29.87S
MAZATLAN       SUNNY     86  68  54 W7        29.90F
P. VALLARTA    SUNNY     81  72  74 SW9       29.90S
URUAPAN        SUNNY     79  59  50 S9        30.18F
ZACATECAS      SUNNY     82  36  18 NE6       30.30F

CENTRAL MEXICO

CITY           SKY/WX    TMP DP  RH WIND       PRES   REMARKS
CUERNAVACA     PTSUNNY   84  59  42 S5        30.13F
MEXICO CITY    SUNNY     75  48  38 VRB3      30.35F
MORELIA        MOSUNNY   79  54  41 NW2       30.26S
POZA RICA      MOSUNNY   93  77  59 CALM      29.89F HX 107
PUEBLA         MOSUNNY   75  46  35 SE3       30.35F
QUERETARO      MOSUNNY   79  55  44 SE7       30.30F
S. LUIS POTOSI SUNNY     84  39  20 CALM      30.22S
TAMPICO        PTSUNNY   88  79  74 SE18      29.85F HX 102
TOLUCA         MOSUNNY   68  50  52 CALM      30.43F

SOUTHERN MEXICO

CITY           SKY/WX    TMP DP  RH WIND       PRES   REMARKS
ACAPULCO       PTSUNNY   86  77  74 W6        29.90F HX  97
B. DE HUATULCO PTSUNNY  N/A N/A N/A MISG      29.96F
OAXACA         PTSUNNY   81  59  47 S8        30.22F
P. ESCONDIDO   PTSUNNY   84  79  84 SE12      30.01F HX  96
VERACRUZ       PTSUNNY   93  75  55 S16       29.85F HX 104
ZIHUATANEJO    MOSUNNY   90  72  55 SW6       29.90F HX  96

YUCATAN PENINSULA

CITY           SKY/WX    TMP DP  RH WIND       PRES   REMARKS
CAMPECHE       PTSUNNY   91  79  66 SE14      29.87F HX 107
CANCUN         PTSUNNY   88  77  70 SE17      29.99S HX 100
CHETUMAL       CLOUDY    88  79  74 SE13      29.94S HX 102
CD. DEL CARMEN PTSUNNY   91  72  52 SE9       29.87R HX  98
COZUMEL        PTSUNNY   90  77  66 S14       29.96S HX 102
MERIDA         PTSUNNY   93  72  49 SE12G23   29.93F HX 100
MINATITLAN     MOSUNNY   93  81  66 CALM      29.83F HAZE    HX 113
TAPACHULA      PTSUNNY   88  75  66 CALM      29.92S HX  97
TUX. GUTIERREZ MOSUNNY   84  66  54 SE12      29.96F
VILLAHERMOSA   MOSUNNY   97  70  41 SW8       29.87S HX 103

CENTRAL AMERICA

CITY           SKY/WX    TMP DP  RH WIND       PRES   REMARKS
BELIZE CITY    MOSUNNY   88  81  79 E7        29.92S HX 105
MANAGUA        MOSUNNY   86  77  74 N7        29.92S HX  97

CARIBBEAN

CITY           SKY/WX    TMP DP  RH WIND       PRES   REMARKS
ARUBA          MOSUNNY   90  77  66 E25       29.92F HX 102
CURACAO        MOSUNNY   88  73  62 E18       29.94F HX  96
KINGSTON       MOSUNNY   88  75  66 SE25      30.00S HX  97
NASSAU         PTSUNNY   93  75  55 W7        30.07F HX 104
SAN JUAN       MOSUNNY   86  75  70 NE14      30.05F HX  95
SANTO DOMINGO  PTSUNNY   90  73  58 SE7       30.03F HX  98
ST. CROIX      MOSUNNY   84  73  70 SE10      30.06  HX  91
ST. KITTS      LGT RAIN  77  73  88 VRB2      30.06S
ST. MAARTEN    MOSUNNY   86  73  66 E12       30.03F HX  93
ST. THOMAS     PTSUNNY   88  73  62 SE13      30.05  HX  96

$$





USA.gov is the U.S. government's official web portal to all federal, state and local government web resources and services.